• în Republica Moldova
  • Lista ţărilor
  • Pe 7 zile
  • Temperatura apei
  • Hartă satelitară
  • Meteo pe hartă
  • Widget-uri
  • user-avatar
    Intrare

    Meteo pe oră la Ischgl

    Astăzi, 14 Decembrie, Joi

    Timp Temperatura Precipitaţii Vânt Presiune Umiditate
    00:00 -14°C° 0,1 mm 4 m/s 562 mmHg 72%
    01:00 -14°C° 0,1 mm 4 m/s 562 mmHg 71%
    02:00 -12°C° 0,2 mm 4 m/s 562 mmHg 74%
    03:00 -12°C° 0,2 mm 4 m/s 562 mmHg 78%
    04:00 -11°C° 0,2 mm 4 m/s 562 mmHg 81%
    05:00 -11°C° 0,4 mm 4 m/s 563 mmHg 83%
    06:00 -11°C° 0,4 mm 4 m/s 563 mmHg 86%
    07:00 -10°C° 0,4 mm 3 m/s 563 mmHg 88%
    08:00 -10°C° 0,4 mm 3 m/s 563 mmHg 88%
    09:00 -9°C° 0,4 mm 3 m/s 564 mmHg 89%
    10:00 -9°C° 0,4 mm 3 m/s 564 mmHg 89%
    11:00 -8°C° 0,7 mm 3 m/s 564 mmHg 89%
    12:00 -7°C° 0,7 mm 2 m/s 564 mmHg 89%
    13:00 -7°C° 0,7 mm 2 m/s 564 mmHg 89%
    14:00 -8°C° 0,6 mm 2 m/s 563 mmHg 90%
    15:00 -8°C° 0,6 mm 2 m/s 563 mmHg 91%
    16:00 -7°C° 0,6 mm 1 m/s 562 mmHg 92%
    17:00 -9°C° 0,2 mm 2 m/s 562 mmHg 91%
    18:00 -9°C° 0,2 mm 2 m/s 561 mmHg 90%
    19:00 -12°C° 0,2 mm 3 m/s 561 mmHg 90%
    20:00 -12°C° 0,3 mm 3 m/s 560 mmHg 88%
    21:00 -12°C° 0,3 mm 3 m/s 560 mmHg 87%
    22:00 -12°C° 0,3 mm 4 m/s 559 mmHg 85%
    23:00 -12°C° 0,4 mm 4 m/s 559 mmHg 86%

    Mâine, 15 Decembrie, Vineri

    Timp Temperatura Precipitaţii Vânt Presiune Umiditate
    00:00 -12°C° 0,4 mm 4 m/s 559 mmHg 88%
    01:00 -12°C° 0,4 mm 4 m/s 559 mmHg 89%
    02:00 -11°C° 1,2 mm 4 m/s 559 mmHg 91%
    03:00 -10°C° 1,2 mm 3 m/s 559 mmHg 93%
    04:00 -10°C° 1,2 mm 3 m/s 559 mmHg 95%
    05:00 -9°C° 0,8 mm 2 m/s 559 mmHg 94%
    06:00 -10°C° 0,8 mm 2 m/s 559 mmHg 94%
    07:00 -9°C° 0,8 mm 1 m/s 560 mmHg 93%
    08:00 -10°C° 0 mm 2 m/s 560 mmHg 91%
    09:00 -10°C° 0 mm 2 m/s 560 mmHg 89%
    10:00 -12°C° 0 mm 2 m/s 560 mmHg 86%
    11:00 -9°C° 0 mm 1 m/s 560 mmHg 81%
    12:00 -8°C° 0 mm 1 m/s 560 mmHg 76%
    13:00 -7°C° 0 mm 1 m/s 560 mmHg 71%
    14:00 -8°C° 0 mm 1 m/s 560 mmHg 75%
    15:00 -10°C° 0 mm 1 m/s 559 mmHg 80%
    16:00 -11°C° 0 mm 1 m/s 558 mmHg 84%
    17:00 -12°C° 0 mm 1 m/s 558 mmHg 82%
    18:00 -16°C° 0 mm 2 m/s 558 mmHg 80%
    19:00 -17°C° 0 mm 2 m/s 558 mmHg 78%
    20:00 -17°C° 0 mm 2 m/s 557 mmHg 74%
    21:00 -18°C° 0 mm 2 m/s 557 mmHg 71%
    22:00 -18°C° 0 mm 2 m/s 557 mmHg 67%
    23:00 -18°C° 0 mm 2 m/s 558 mmHg 69%

    Poimâine, 16 Decembrie, Sâmbătă

    Timp Temperatura Precipitaţii Vânt Presiune Umiditate
    00:00 -18°C° 0 mm 2 m/s 558 mmHg 70%
    01:00 -18°C° 0 mm 2 m/s 558 mmHg 71%
    02:00 -18°C° 0 mm 2 m/s 559 mmHg 73%
    03:00 -17°C° 0 mm 2 m/s 559 mmHg 75%
    04:00 -17°C° 0 mm 2 m/s 560 mmHg 78%
    05:00 -17°C° 0 mm 2 m/s 560 mmHg 80%
    06:00 -17°C° 0 mm 2 m/s 560 mmHg 83%
    07:00 -17°C° 0 mm 2 m/s 560 mmHg 85%
    08:00 -16°C° 0,1 mm 2 m/s 561 mmHg 86%
    09:00 -15°C° 0,1 mm 2 m/s 562 mmHg 86%
    10:00 -14°C° 0,1 mm 2 m/s 564 mmHg 87%
    11:00 -13°C° 0,2 mm 2 m/s 564 mmHg 86%
    12:00 -12°C° 0,2 mm 2 m/s 564 mmHg 86%
    13:00 -12°C° 0,2 mm 2 m/s 565 mmHg 86%
    14:00 -12°C° 0,3 mm 2 m/s 565 mmHg 89%
    15:00 -13°C° 0,3 mm 2 m/s 565 mmHg 91%
    16:00 -13°C° 0,3 mm 2 m/s 565 mmHg 94%
    17:00 -13°C° 0,2 mm 2 m/s 565 mmHg 94%
    18:00 -14°C° 0,2 mm 2 m/s 565 mmHg 95%
    19:00 -15°C° 0,2 mm 2 m/s 566 mmHg 95%
    20:00 -15°C° 0,2 mm 2 m/s 566 mmHg 95%
    21:00 -15°C° 0,2 mm 2 m/s 566 mmHg 95%
    22:00 -15°C° 0,2 mm 2 m/s 566 mmHg 95%
    23:00 -16°C° 0,2 mm 2 m/s 566 mmHg 95%

    17 Decembrie, Duminică

    Timp Temperatura Precipitaţii Vânt Presiune Umiditate
    00:00 -16°C° 0,2 mm 2 m/s 567 mmHg 95%
    01:00 -17°C° 0,2 mm 2 m/s 567 mmHg 95%
    02:00 -16°C° 0,3 mm 2 m/s 567 mmHg 95%
    03:00 -16°C° 0,3 mm 2 m/s 567 mmHg 95%
    04:00 -16°C° 0,3 mm 2 m/s 568 mmHg 95%
    05:00 -16°C° 0,3 mm 2 m/s 568 mmHg 95%
    06:00 -16°C° 0,3 mm 2 m/s 568 mmHg 95%
    07:00 -16°C° 0,3 mm 2 m/s 569 mmHg 95%
    08:00 -16°C° 0,2 mm 2 m/s 569 mmHg 94%
    09:00 -15°C° 0,2 mm 2 m/s 570 mmHg 93%
    10:00 -15°C° 0,2 mm 2 m/s 571 mmHg 92%
    11:00 -15°C° 0,1 mm 2 m/s 571 mmHg 90%
    12:00 -14°C° 0,1 mm 2 m/s 571 mmHg 89%
    13:00 -14°C° 0,1 mm 2 m/s 571 mmHg 87%
    14:00 -15°C° 0,1 mm 2 m/s 571 mmHg 88%
    15:00 -16°C° 0,1 mm 2 m/s 571 mmHg 90%
    16:00 -17°C° 0,1 mm 2 m/s 570 mmHg 92%
    17:00 -17°C° 0,1 mm 2 m/s 570 mmHg 93%
    18:00 -18°C° 0,1 mm 2 m/s 571 mmHg 93%
    19:00 -19°C° 0,1 mm 2 m/s 571 mmHg 93%
    20:00 -19°C° 0 mm 2 m/s 571 mmHg 92%
    21:00 -20°C° 0 mm 2 m/s 571 mmHg 92%
    22:00 -21°C° 0 mm 2 m/s 571 mmHg 91%
    23:00 -21°C° 0 mm 2 m/s 571 mmHg 89%

    18 Decembrie, Luni

    Timp Temperatura Precipitaţii Vânt Presiune Umiditate
    00:00 -21°C° 0 mm 2 m/s 571 mmHg 88%
    01:00 -21°C° 0 mm 2 m/s 571 mmHg 87%
    02:00 -21°C° 0 mm 2 m/s 571 mmHg 85%
    03:00 -21°C° 0 mm 2 m/s 571 mmHg 83%
    04:00 -21°C° 0 mm 2 m/s 571 mmHg 81%
    05:00 -20°C° 0 mm 2 m/s 571 mmHg 80%
    06:00 -20°C° 0 mm 2 m/s 572 mmHg 79%
    07:00 -19°C° 0 mm 2 m/s 572 mmHg 78%
    08:00 -17°C° 0 mm 2 m/s 573 mmHg 80%
    09:00 -16°C° 0 mm 2 m/s 574 mmHg 83%
    10:00 -14°C° 0 mm 2 m/s 575 mmHg 85%
    11:00 -13°C° 0,1 mm 2 m/s 575 mmHg 85%
    12:00 -12°C° 0,1 mm 2 m/s 575 mmHg 86%
    13:00 -10°C° 0,1 mm 2 m/s 575 mmHg 86%
    14:00 -10°C° 0,4 mm 2 m/s 574 mmHg 88%
    15:00 -12°C° 0,4 mm 2 m/s 574 mmHg 90%
    16:00 -12°C° 0,4 mm 2 m/s 573 mmHg 93%
    17:00 -12°C° 1,2 mm 2 m/s 573 mmHg 93%
    18:00 -12°C° 1,2 mm 2 m/s 573 mmHg 94%
    19:00 -12°C° 1,2 mm 2 m/s 573 mmHg 95%
    20:00 -12°C° 1,3 mm 2 m/s 573 mmHg 95%
    21:00 -10°C° 1,3 mm 2 m/s 574 mmHg 96%
    22:00 -10°C° 1,3 mm 2 m/s 574 mmHg 96%
    23:00 -10°C° 0,8 mm 2 m/s 574 mmHg 96%

    19 Decembrie, Marţi

    Timp Temperatura Precipitaţii Vânt Presiune Umiditate
    00:00 -10°C° 0,8 mm 2 m/s 574 mmHg 96%
    01:00 -10°C° 0,8 mm 2 m/s 575 mmHg 96%
    02:00 -10°C° 0,2 mm 2 m/s 575 mmHg 95%
    03:00 -12°C° 0,2 mm 2 m/s 575 mmHg 95%
    04:00 -12°C° 0,2 mm 2 m/s 575 mmHg 95%
    05:00 -13°C° 0 mm 2 m/s 575 mmHg 95%
    06:00 -13°C° 0 mm 2 m/s 575 mmHg 95%
    07:00 -13°C° 0 mm 2 m/s 575 mmHg 94%
    08:00 -12°C° 0 mm 2 m/s 576 mmHg 94%
    09:00 -12°C° 0 mm 2 m/s 577 mmHg 94%
    10:00 -10°C° 0 mm 2 m/s 577 mmHg 93%
    11:00 -9°C° 0 mm 2 m/s 578 mmHg 92%
    12:00 -8°C° 0 mm 2 m/s 578 mmHg 91%
    13:00 -7°C° 0 mm 2 m/s 578 mmHg 89%
    14:00 -8°C° 0 mm 2 m/s 578 mmHg 91%
    15:00 -9°C° 0 mm 2 m/s 578 mmHg 92%
    16:00 -10°C° 0 mm 2 m/s 577 mmHg 93%
    17:00 -10°C° 0 mm 2 m/s 577 mmHg 92%
    18:00 -12°C° 0 mm 2 m/s 577 mmHg 91%
    19:00 -13°C° 0 mm 2 m/s 577 mmHg 91%
    20:00 -13°C° 0 mm 2 m/s 577 mmHg 88%
    21:00 -13°C° 0 mm 2 m/s 578 mmHg 85%
    22:00 -14°C° 0 mm 2 m/s 578 mmHg 82%
    23:00 -13°C° 0 mm 2 m/s 578 mmHg 80%
    Arată mai mult